Weather in Barsuki

Russia / Smolensk Oblast     54°21′54″N   32°03′16″E
temp.,
°C
wind,
m/s
gust,
m/s
humid.,
%
clouds,
%
prec.,
mm/h
press.,
hPa
HPBL,
m
27 july, tue
tue2700:00+19sse337043 0.0 102025
03:00+17sse33795 0.0 102138
06:00+17sse22765 0.0 102035
09:00+24s355543 0.0 1019415
12:00+26sw345282 0.0 10191179
15:00+25ssw5744100 0.0 1019822
18:00+24sse365591 0.0 1017332
21:00+19se3877100 0.4 1016157
28 july, wed
wed2800:00+17sse3896100 3.4 1016191
03:00+18se51095100 4.4 1014242
06:00+17s31096100 0.3 1013357
09:00+18sse3597100 0.8 1012251
12:00+19nw1295100 0.3 1012169
15:00+24wnw236862 0.4 10111092
18:00+22wnw25829 0.6 1010126
21:00+20nnw118667 0.8 101011
29 july, thu
thu2900:00+19wsw339045 1.1 101036
03:00+18w229037 1.1 100925
06:00+19wnw228784 0.0 100940
09:00+22wnw2371100 0.0 1008328
12:00+20wsw4692100 2.2 1009216
15:00+23sw456570 3.0 1009656
18:00+23w45696 0.1 1008589
21:00+19w33900 0.3 100938
30 july, fri
fri3000:00+17w35940 0.0 100990
03:00+16w34940 0.0 100952
06:00+16w23925 0.0 101046
09:00+21w346917 0.0 1010340
12:00+25wsw46478 0.0 10091773
15:00+25wsw474690 0.0 10091795
18:00+24sw245921 0.0 1007179
21:00+21s4866100 0.0 1007140
31 july, sat
sat3100:00+21w51158100 0.0 1007354
03:00+18wsw397891 0.0 1007292
06:00+17ssw389415 0.6 1007270
09:00+20wsw578252 0.7 1006635
12:00+25wsw585337 0.0 10061920
15:00+27wsw7940100 0.0 10052545
18:00+25w58465 0.0 1006838
21:00+18nw336076 0.0 100727